Find Starlink 32085

NORAD ID: 59685 Int'l Des: 2024-086 Owner: SPXS Country: US Constellation: starlink operational
LEOCIRCULAR

实时位置

正在加载3D地球...

关于 Starlink 32085

正在加载描述...

即将过境

Passes for default location (London). Set your location on the main map for personalized predictions.

高度历史

Loading altitude history...

两行轨道根数

1 59685U 24086D 26127.61407228 .00000799 00000-0 38542-4 0 9992
2 59685 43.0030 87.1404 0001123 244.4813 115.5923 15.27575103113122
Epoch: May 7, 2026 • Age: 12 hours

当前状态

高度 492.9 km
速度 7.62 km/s
星下点 -35.80°S, 122.48°E
发射日期 May 8, 2024
运行时间 1.9 years
类型 internet

技术详情

分类 Payload
质量 730.00 kg
干质量 700.00 kg
总质量 730.00 kg
长度 0.30 m
直径 4.10 m
跨度 29.00 m
形状 Box + pan
制造商 SPXS
平台类型 Starlink V2M
阶段状态 In Orbit
所有者/国家 SPXS/US

Most Searched